This is the latest recevied weather packets stored in our database for station/object EA1L-13. If no packets are shown the sender has not sent any weather packets the latest 10 day(s).
| Time | Temp. | Humidity | Pressure | Rain* | Wind** | Luminosity | Snow |
|---|---|---|---|---|---|---|---|
| 1777422605 | 12.78° C | 100% | 1008.7 hPa | 0 mm | - | - | - |
| 1777421704 | 12.78° C | 100% | 1008.8 hPa | 0 mm | - | - | - |
| 1777420804 | 12.78° C | 100% | 1008.9 hPa | 0 mm | - | - | - |
| 1777419904 | 12.22° C | 100% | 1009.2 hPa | 0 mm | - | - | - |
| 1777419005 | 12.22° C | 100% | 1009.5 hPa | 0 mm | - | - | - |
| 1777418105 | 12.78° C | 100% | 1009.6 hPa | 0 mm | - | - | - |
| 1777417204 | 12.78° C | 100% | 1009.8 hPa | 0 mm | - | - | - |
| 1777416305 | 12.78° C | 100% | 1009.9 hPa | 0 mm | - | - | - |
| 1777415404 | 12.78° C | 100% | 1009.9 hPa | 0 mm | - | - | - |
| 1777414504 | 12.78° C | 99% | 1010 hPa | 0 mm | - | - | - |
| 1777413605 | 12.78° C | 98% | 1010.1 hPa | 0 mm | - | - | - |
| 1777412705 | 12.78° C | 97% | 1010.2 hPa | 0 mm | - | - | - |
| 1777411804 | 12.78° C | 96% | 1010.2 hPa | 0 mm | - | - | - |
| 1777410904 | 12.78° C | 94% | 1010.4 hPa | 0 mm | - | - | - |
| 1777410004 | 12.78° C | 92% | 1010.3 hPa | 0 mm | - | - | - |
| 1777409105 | 12.78° C | 89% | 1010.2 hPa | 0 mm | - | - | - |
| 1777408205 | 12.78° C | 84% | 1010.2 hPa | 0 mm | - | - | - |
| 1777407304 | 12.22° C | 82% | 1010 hPa | 0 mm | - | - | - |
| 1777406404 | 12.78° C | 89% | 1009.9 hPa | 0 mm | - | - | - |
| 1777405504 | 13.33° C | 92% | 1009.8 hPa | 0 mm | - | - | - |
| 1777404605 | 13.33° C | 92% | 1009.9 hPa | 0 mm | - | - | - |
| 1777403704 | 13.33° C | 93% | 1009.9 hPa | 0 mm | - | - | - |
| 1777402804 | 13.33° C | 93% | 1009.9 hPa | 0 mm | - | - | - |
| 1777401904 | 13.33° C | 93% | 1009.7 hPa | 0 mm | - | - | - |
| 1777401005 | 13.33° C | 93% | 1009.7 hPa | 0 mm | - | - | - |
* Rain latest hour (hover to see other rain measurements)
** Current wind speed in m/s (hover to see current wind gust speed)